User: anonymous   Login
Location: Unspecified
(0.0000°N, 0.0000°E)
Time: 06:58:21
(UTC+00:00)
Language:

Oscar 16 - Orbit

View from above orbital plane
View from above orbital plane
View from above satellite
View from above satellite

Ground track
Ground track

The orbit data is extracted from the following two-line orbital elements,

1 20439U 90005D   17202.95550209 +.00000001 +00000-0 +16601-4 0  9998
2 20439 098.6103 142.0486 0011930 062.7149 004.1683 14.32686243436133
Epoch (UTC): 21 July 2017 22:55:55
Eccentricity: 0.0011930
inclination: 98.6103°
perigee height: 774 km
apogee height: 791 km
right ascension of ascending node: 142.0486°
argument of perigee: 62.7149°
revolutions per day: 14.32686243
mean anomaly at epoch: 4.1683°
orbit number at epoch: 43613

The dashed part of the orbit path shows where the satellite is in the earth's shadow,  

DLR